Showing default

KOMPSAT 3A, 40536

Orbit data source: Space-Track

KOMPSAT 3A, 40536 is a payload satellite owned by KARI (KR) in SSO that was launched on Wed, 25 Mar 2015 UTC via a DNEPR launch vehicle from the Orenburg, Russia (OREN). Payload-class satellites include a variety of spacecraft equipped with specific instruments for various scientific and technological missions. These include communications satellites like Starlink; space stations such as the ISS; scientific satellites like the Hubble; Earth observation satellites from companies like Planet Labs, Umbra, and HawkEye 360; GPS; miniature CubeSats for education and research; and military/defense satellites.

Loading next visibility...
Identifier
40536, 2015-014A
Orbit
SSO
Country
Flag of UnknownUnknown / SKOR
Related business
Manufacturer
AP Aerospace
Mission
Operational Civil Imaging
Bus & Motor
KOMPSAT, AOCS?
Mass
1,112 kg wet, 1,039 kg dry
Launch date (UTC)
2015-03-25 (11 years ago)
Launch vehicle
DNEPR
Launch site
Orenburg, Russia (OREN)
Object type
Payload
Rocket body
Debris
Shape & HBR
Hex Cyl + 3 Pan, 3.3 m
Radar Cross Section
9.888 m², Large (>1 m²)

Expand to show TLE details & history
Last TLE update: 21 hours ago

TLE from 21 hours ago
0 KOMPSAT 3A
1 40536U 15014A   25306.53588389  .00019651  00000-0  46362-3 0  9990
2 40536  97.6739 278.7368 0001750 352.4261   7.6958 15.41930762586752
Epoch: 2025-11-02T12:51Z
TLE epoch observation values (Epoch: 2025-11-02T12:51:40.368Z)
Latitude
-0.00005°
Longitude
43.7684°
Altitude
442.341 km
Speed
7.647 km/s
True Right ascension
18h 34m 56s
True Declination
0° 00' 00"
Sunlit
Object was in daylight at epoch
Visualization orbit readout
Latitude
Unknown
Longitude
Unknown
Altitude
Unknown
Speed
Unknown
Apparent Right ascension
Unknown
Apparent Declination
Unknown
Sunlit
N/A
Visualization observer readout
Local Sidereal Time
06:06:20
Azimuth
Unknown
Elevation
Unknown
Doppler factor
Unknown
Orbital elements
Apogee altitude
438.553 km
Perigee altitude
436.167 km
Semi-major axis
6,815.497 km
Eccentricity
0.00018
Inclination
97.6739°
RAAN
278.7368°
Arg. of periapsis
352.4261°
True anomaly
7.69849°
Mean anomaly
7.6958°
Eccentric anomaly
7.69714°
Mean motion
3.85742 °/min
Orbital period
93.33 mins
BSTAR
0.00046362
Loading maneuver chart data...
Computing Atmospheric mass density...
Loading historical data...
Loading historical data...
Loading historical data...
Loading historical data...
Loading historical data...
Loading historical data...
Loading historical data...
Other satellites on launch #14 in the year 2015 (2015-03-25 UTC)

Documentation

Showing up to 5 results
|